Location: Catstown
(52.4386°N, 7.2633°W)
Time: 01:45:36
(UTC+00:00)

ATLAS CENTAUR R/B - Pass Details

Date: 18 September 2020
Orbit: 479 x 667 km, 64.7° (Epoch: 12 October)

Event Time Altitude Azimuth Distance (km) Brightness Sun altitude
Rises 21:05:51 0° 293° (WNW) 2,608 6.2 -22.2°
Reaches altitude 10° 21:09:00 10° 321° (NW) 1,696 4.9 -22.6°
Maximum altitude 21:10:56 14° 352° (N) 1,476 4.0 -22.8°
Drops below altitude 10° 21:12:52 10° 23° (NNE) 1,674 3.9 -23.1°
Enters shadow 21:13:42 - 33° (NNE) 1,866 4.1 -23.2°
